Theta_e
310 310 309 309 309 308 307 306 306 304 302 302 303 304 305 305 306 307 310 309 312 313 322 324 327 328 327 326 328 327 330 331 330 329 328 327 325 324 325 326 325 323 324 326 327
310 310 310 309 309 309 308 308 308 307 307 303 302 303 304 304 306 311 310 310 311 311 317 327 327 328 326 327 328 329 330 334 331 328 327 327 326 325 323 322 324 325 326 327 326
307 308 309 310 310 309 309 308 308 308 308 307 305 302 301 303 315 312 313 317 317 311 314 320 328 326 327 327 328 329 332 331 331 329 327 327 327 325 322 322 322 324 326 325 324
307 307 308 308 308 307 308 309 309 308 308 307 306 305 300 306 306 314 316 315 316 314 316 317 318 325 328 329 328 330 330 331 330 329 327 327 327 327 323 322 322 323 325 324 323
306 307 307 307 307 306 307 309 309 309 308 308 307 308 305 315 309 313 317 314 317 317 321 317 317 318 322 329 329 330 330 330 329 327 327 327 327 326 323 323 322 323 323 324 323
302 300 303 306 306 305 305 307 308 309 308 308 308 310 310 307 307 308 309 311 313 319 319 317 316 317 316 321 325 329 330 329 329 328 328 328 328 324 325 324 323 321 322 321 320
306 306 301 299 303 306 305 304 305 306 306 307 311 312 311 308 305 309 310 311 311 315 317 318 317 317 316 317 318 322 326 328 328 325 324 325 325 325 324 323 323 320 319 321 321
307 306 306 305 301 303 305 305 304 305 305 307 312 312 311 306 305 306 306 307 309 313 316 317 317 316 316 316 318 320 320 322 322 323 324 323 327 325 324 323 323 322 320 320 318
306 306 306 306 305 303 301 303 304 303 307 309 311 311 309 305 307 304 307 310 310 312 313 318 315 315 316 317 317 318 321 321 322 323 325 324 326 326 324 323 324 323 322 322 320
305 305 305 306 306 304 299 301 303 305 308 310 312 312 309 308 308 309 308 310 311 313 314 318 318 315 314 315 319 320 321 323 324 324 324 325 325 325 324 324 324 322 323 323 321
306 304 305 305 306 305 301 302 308 313 310 313 311 309 312 311 312 312 311 310 313 314 314 318 319 317 318 318 320 321 321 323 323 324 325 325 326 326 325 323 323 321 321 322 321
304 304 305 305 305 305 302 304 305 308 308 309 312 312 309 310 310 312 314 313 312 314 314 317 316 316 318 319 319 319 322 322 322 323 323 323 324 326 325 324 322 322 322 321 323
304 304 304 305 305 303 303 305 308 307 309 311 311 313 313 312 312 312 315 315 312 313 313 315 319 318 317 318 320 319 320 324 324 324 323 323 325 324 326 325 324 323 322 323 323
303 304 304 305 305 304 302 305 306 308 310 311 312 313 313 313 316 313 314 315 315 312 314 313 316 318 317 316 319 320 321 323 326 326 325 323 326 322 324 324 323 322 321 323 323
303 303 304 304 306 304 302 304 307 308 304 306 308 312 313 315 317 316 314 314 315 314 314 314 314 315 315 315 318 321 320 322 324 325 323 324 322 321 323 325 324 322 322 322 322
303 303 304 304 306 305 305 304 307 309 310 307 311 312 314 314 317 317 316 314 315 315 314 313 314 314 314 316 318 320 321 322 322 323 326 324 324 326 323 324 324 322 324 322 322
303 303 304 305 305 305 305 306 311 313 308 309 309 308 309 316 317 318 316 314 315 314 315 315 314 314 315 315 316 320 320 323 323 324 327 323 325 325 324 324 323 320 322 322 323
302 302 303 303 304 305 305 310 314 308 307 307 309 309 311 314 316 317 317 315 314 313 314 315 315 315 315 315 315 315 316 324 326 326 324 323 325 324 322 323 323 322 323 323 323
303 303 305 305 305 306 306 310 307 307 307 308 308 310 310 310 311 317 318 315 315 314 315 315 316 317 316 316 315 315 318 317 322 323 323 323 324 326 323 323 326 326 325 324 323
305 304 304 304 305 305 307 308 307 307 307 307 309 309 310 310 314 314 317 318 316 315 313 315 317 317 317 315 315 315 317 320 319 325 325 324 325 326 323 324 328 327 325 324 324
303 302 304 306 306 306 306 305 305 305 307 308 309 308 308 311 312 314 315 318 318 316 315 314 317 320 317 316 315 314 316 320 320 320 325 323 323 321 321 321 329 326 325 324 325
302 302 305 306 307 305 305 304 305 305 306 307 307 307 308 311 311 313 316 317 315 314 317 315 314 317 317 317 316 315 316 320 323 322 321 321 322 322 321 322 327 326 326 324 324
300 300 305 305 303 307 304 305 305 306 306 307 307 308 309 310 311 315 316 315 315 313 316 316 315 318 323 318 319 316 319 319 318 319 323 322 322 324 326 328 328 327 325 324 323
299 301 303 302 305 306 306 306 307 305 304 305 307 307 309 310 309 312 313 313 313 312 316 314 316 316 319 320 320 319 318 322 320 321 322 322 324 326 330 331 330 328 325 324 325
298 300 304 301 301 303 303 305 305 306 304 303 306 309 309 311 311 311 311 312 311 313 311 310 319 316 317 319 323 322 320 323 323 321 323 323 323 323 326 331 331 328 325 325 325
302 302 302 303 302 302 303 304 306 306 306 307 305 307 308 310 311 313 311 311 312 311 310 310 318 318 318 318 318 319 323 324 324 323 322 323 325 323 326 329 328 328 326 325 325
302 302 303 303 302 302 303 306 307 307 307 307 307 306 306 308 310 311 311 309 310 311 310 311 318 321 320 320 319 319 321 324 324 324 324 324 322 321 323 329 330 327 327 326 325
Wind_Speed
20 19 20 20 19 19 19 20 20 19 18 18 17 17 16 18 21 19 14 22 15 23 9 11 15 14 9 5 5 5 2 8 7 7 10 16 3 7 5 3 4 5 7 9 29
19 20 20 21 21 21 21 21 20 20 19 18 19 18 17 18 20 17 34 35 30 25 24 15 9 9 3 5 5 6 6 12 14 8 10 15 7 12 5 7 5 3 3 16 31
19 19 19 20 21 21 22 22 21 20 19 18 18 18 15 13 6 11 12 7 17 29 24 22 9 8 7 5 7 8 16 19 19 16 15 18 19 10 6 6 8 5 7 12 12
17 18 19 20 21 22 22 22 22 21 18 18 17 18 14 1 8 3 6 15 8 25 25 18 6 7 6 13 22 6 14 21 23 21 18 20 20 19 8 9 9 7 16 10 10
19 18 19 20 21 22 22 23 23 22 22 20 17 16 6 5 10 14 14 14 6 21 23 12 10 12 15 10 8 13 25 21 19 17 21 21 19 19 10 11 10 3 13 17 16
20 20 20 21 21 22 22 21 23 22 20 19 17 13 3 15 17 35 40 26 23 13 20 16 10 11 5 17 15 9 16 20 18 20 22 23 23 8 13 10 10 10 16 14 15
22 22 21 22 22 24 24 24 24 24 23 19 15 10 10 19 12 11 20 19 27 27 9 28 28 4 7 9 13 13 21 20 19 14 18 16 19 14 12 10 10 12 11 15 18
23 24 24 24 23 24 25 27 27 26 23 20 14 9 10 15 18 28 40 40 23 20 24 28 27 12 5 5 8 6 4 9 11 15 21 7 24 17 13 11 12 12 10 10 11
22 23 24 25 25 25 27 31 32 30 24 18 12 6 11 10 15 42 38 19 29 24 25 28 9 8 3 16 11 5 12 17 13 11 13 9 21 19 15 14 16 12 10 11 12
24 24 24 24 24 25 27 32 37 20 12 9 12 2 8 8 11 12 29 30 12 6 7 12 6 7 6 5 13 11 11 5 17 19 8 13 17 20 20 17 18 12 10 10 7
24 24 24 24 24 24 25 15 4 2 6 10 11 9 3 22 7 10 12 21 11 6 10 14 11 16 26 22 13 8 7 9 20 24 5 12 15 23 15 9 14 10 10 10 9
28 26 24 22 23 24 23 2 5 2 10 17 26 25 36 18 7 10 18 11 13 18 15 7 25 24 17 16 13 12 14 17 20 23 6 17 19 22 12 7 9 12 11 7 7
25 25 26 23 20 19 8 12 18 15 6 12 20 19 19 11 11 18 14 10 9 17 21 22 8 19 17 15 13 16 18 17 18 21 16 11 16 9 6 3 3 7 4 8 17
26 25 22 23 14 11 11 12 22 10 4 7 9 10 15 10 13 26 8 9 8 24 22 18 21 16 21 18 17 19 17 19 16 12 8 6 7 6 6 5 5 8 7 10 14
24 24 21 14 15 8 12 27 27 3 4 5 5 5 10 22 12 17 30 13 20 15 18 17 21 24 21 26 21 18 18 18 20 13 8 22 4 8 6 6 9 9 6 10 17
23 22 20 13 11 20 20 27 9 2 8 7 6 5 4 23 14 5 21 9 10 17 18 26 5 21 24 18 22 23 12 12 12 9 11 16 7 14 5 8 5 2 7 9 9
23 21 17 10 7 9 16 9 1 6 8 1 12 21 18 14 20 8 21 24 13 17 23 14 24 16 15 21 20 15 10 4 3 4 11 10 7 11 6 8 8 8 9 8 9
24 22 19 20 19 15 10 1 9 7 14 19 21 22 6 13 7 22 9 23 23 16 12 16 12 27 21 20 17 20 14 8 7 5 4 6 6 9 9 4 7 7 10 11 10
23 16 10 17 11 9 1 6 4 3 9 17 20 10 12 23 14 5 22 24 23 21 12 16 16 8 21 19 19 13 15 21 4 4 2 4 6 9 5 6 6 10 12 11 11
10 7 9 8 8 5 1 6 4 10 18 16 11 10 18 20 13 16 3 14 18 23 8 4 5 16 16 15 24 26 5 7 2 10 6 4 4 5 1 7 6 8 10 8 8
6 4 5 4 12 1 3 5 7 12 14 9 13 15 13 15 11 8 8 7 13 12 21 9 3 5 16 21 27 11 10 6 5 6 8 3 7 8 13 10 15 13 13 13 14
3 3 7 16 1 1 4 2 8 15 15 15 9 12 10 6 10 8 8 10 22 21 9 25 4 11 22 5 16 14 14 10 9 5 2 6 10 3 12 13 16 11 12 11 12
3 3 7 4 1 2 4 7 9 16 15 6 7 7 9 7 4 7 11 15 17 19 9 7 16 9 8 2 8 16 14 8 5 5 8 7 7 3 5 12 13 14 10 11 11
2 4 3 4 1 3 3 7 4 6 10 9 3 4 8 11 10 8 14 12 26 20 18 10 7 28 15 11 5 6 18 14 8 5 6 9 5 3 2 13 9 11 13 15 16
1 3 2 3 3 6 4 5 11 7 7 8 2 5 7 4 9 15 13 19 19 10 15 8 13 21 31 18 5 8 18 19 17 13 11 8 11 9 10 16 17 15 13 14 15
2 2 3 6 6 4 4 4 14 11 7 9 7 10 12 7 12 12 9 12 11 9 15 9 6 16 23 30 27 18 15 22 16 8 8 12 9 8 17 9 9 15 17 17 18
4 3 3 5 4 3 2 8 10 13 10 7 11 5 10 12 9 12 10 10 19 17 17 4 5 3 21 19 20 20 21 19 19 15 13 11 7 8 8 14 17 15 19 20 19
Wind_Direction
332 332 333 335 338 337 334 333 332 331 323 316 307 304 308 306 302 298 249 245 258 257 252 186 200 198 178 213 191 142 146 255 237 227 253 285 4 297 271 263 252 220 154 211 176
323 322 321 322 324 324 328 331 330 328 326 319 312 304 304 313 321 282 266 271 260 244 211 187 188 182 215 210 208 167 188 236 235 254 276 288 282 292 304 318 292 304 8 137 154
314 312 312 309 308 310 315 320 323 323 320 321 318 310 304 322 328 253 286 284 251 232 221 218 196 162 213 174 216 203 226 242 266 261 265 271 285 279 278 293 269 240 193 158 157
321 316 312 308 306 306 308 310 311 311 313 318 321 317 310 202 233 230 159 10 302 214 215 216 209 194 201 220 235 267 242 243 253 263 268 268 277 275 237 246 252 277 187 164 166
322 322 319 315 312 307 302 304 302 304 309 314 319 325 326 215 225 212 249 323 352 187 204 203 189 216 220 240 243 234 242 246 254 263 265 269 262 260 248 263 271 160 169 183 186
334 320 315 317 316 309 299 295 298 300 301 305 309 321 220 246 247 251 256 259 269 208 211 200 217 207 300 235 235 241 248 253 259 262 266 265 270 246 251 250 269 175 201 192 186
331 331 328 314 313 314 310 298 294 293 294 300 298 290 242 244 242 250 231 248 252 232 215 215 221 185 204 269 271 251 257 263 260 250 258 269 269 250 253 253 250 210 194 198 202
329 326 325 325 317 313 312 308 300 295 294 292 295 280 255 267 265 257 249 262 259 249 243 236 218 219 221 302 310 301 268 253 245 259 261 201 269 275 258 235 237 225 227 206 204
324 324 320 321 322 316 310 306 299 295 285 280 275 209 267 272 226 238 231 223 237 237 236 233 163 199 185 228 266 229 257 260 278 244 260 220 267 269 274 230 233 228 225 227 222
322 319 318 316 318 321 314 308 306 288 287 241 232 289 261 235 235 242 237 222 223 196 216 209 192 183 227 155 218 218 238 225 255 257 257 267 265 270 265 241 225 217 228 233 203
324 320 316 317 314 319 322 338 4 62 235 213 198 216 298 235 290 246 186 190 219 221 200 198 209 213 217 218 226 238 236 247 262 268 279 269 272 271 260 243 221 218 233 235 198
324 322 322 313 313 315 310 240 225 322 289 258 258 238 262 291 310 269 173 167 180 212 201 198 221 218 223 224 218 230 242 248 271 269 261 274 281 286 266 228 213 214 233 217 138
325 321 321 319 316 306 287 258 303 309 266 268 232 233 227 247 235 266 195 185 192 197 207 209 229 203 210 221 225 228 231 245 244 277 278 277 280 265 296 239 240 275 269 146 165
324 322 317 320 307 310 280 321 326 336 275 268 211 239 191 216 255 220 223 187 208 205 208 233 220 202 211 221 214 235 227 241 251 255 257 141 281 276 242 267 257 274 216 183 172
323 321 316 308 292 299 295 329 331 208 300 228 215 176 185 185 129 208 202 211 204 180 187 211 196 217 224 217 216 230 224 235 246 248 261 280 292 267 273 275 271 289 211 173 175
324 320 316 302 256 271 317 328 327 89 251 302 92 343 189 208 216 133 185 187 197 204 211 218 192 210 221 221 220 233 241 240 257 244 254 244 214 264 222 228 254 230 193 178 154
322 317 305 261 247 276 323 321 227 215 311 195 344 340 308 202 220 229 185 189 191 188 216 211 223 237 203 216 230 216 203 250 288 197 240 214 195 240 226 229 223 197 196 158 147
320 312 295 265 266 276 308 245 236 239 262 312 347 328 325 26 274 231 191 197 208 200 180 209 224 211 217 211 212 221 212 202 184 221 234 208 226 257 224 236 207 153 155 140 139
320 313 268 279 237 238 197 224 235 315 306 348 346 336 347 358 343 239 223 211 202 203 185 195 227 243 206 211 206 222 211 224 215 320 130 211 282 319 262 139 132 132 145 150 153
313 293 278 320 203 158 151 252 300 335 324 327 340 350 342 337 336 350 241 228 224 211 196 232 219 232 206 198 231 220 141 229 305 205 213 265 243 227 160 155 151 157 157 149 139
325 333 280 335 159 116 223 243 303 283 313 331 325 315 329 322 318 312 292 30 10 236 218 222 126 306 208 203 209 201 200 198 179 166 192 203 262 195 200 180 172 173 167 162 164
329 326 70 135 72 151 242 216 279 282 300 291 277 306 315 307 297 293 269 285 359 349 266 212 173 239 241 293 202 211 204 182 215 231 166 157 257 222 213 173 168 172 170 170 159
322 258 360 144 183 236 250 262 283 278 275 271 295 299 289 276 273 300 303 330 328 344 350 252 218 249 322 229 241 203 201 179 143 123 188 161 256 358 129 151 173 158 166 157 153
6 325 341 6 76 290 263 276 270 296 309 288 248 288 291 262 248 269 296 314 336 315 315 308 228 208 221 221 167 202 201 188 149 149 163 196 198 228 205 155 171 170 161 164 165
16 272 300 310 313 292 283 269 288 293 250 277 241 220 271 291 283 264 295 318 318 294 350 3 222 206 222 234 248 220 213 193 189 182 174 201 192 218 191 176 181 171 159 158 164
314 331 329 289 275 294 288 317 300 308 273 299 235 267 289 259 279 281 275 309 293 307 348 336 292 203 221 226 239 249 229 197 193 177 142 179 208 202 190 171 144 170 164 172 177
304 313 302 287 303 333 255 326 297 307 273 276 305 288 282 264 226 228 215 244 258 275 294 273 327 292 223 219 232 236 235 209 184 177 152 186 201 169 149 174 178 174 177 179 180